RADUGA-1 5 1 26477U 00049A 21017.98461559 -.00000209 00000-0 00000-0 0 9999 2 26477 12.8190 22.3192 0006102 13.0836 160.5787 1.00337572 74607 SL-12 R/B(2) 1 26480U 00049D 21018.05571299 -.00000023 00000-0 00000-0 0 9999 2 26480 13.2447 24.0669 0018637 343.6184 211.7615 0.98190799 26984